Location: Pamplona-Iru�ea
(42.8170°N, 1.6330°W)
Time: 22:56:22
(UTC+02:00)

ISS - Visible Passes

Search period start: 19 October 2018 00:00
Search period end: 28 October 2018 23:00
Orbit: 403 x 408 km, 51.6° (Epoch: 20 October)

Date Brightness Start Highest point End Pass type
(mag) Time Alt. Az. Time Alt. Az. Time Alt. Az.
25 Oct -1.2 07:55:03 10° S 07:57:41 23° SE 08:00:21 10° E visible
26 Oct -0.7 07:04:27 10° SSE 07:05:54 12° SE 07:07:22 10° ESE visible
27 Oct -3.1 07:46:47 10° SW 07:49:59 53° SE 07:53:12 10° ENE visible
28 Oct -2.0 05:56:05 16° S 05:58:04 28° SE 06:00:57 10° ENE visible
